Home > Weather > Irvine > Past weeks

Flag for USA Past Weather in Irvine, California, USA — Yesterday and Last 2 Weeks

Now
83 °F

Passing clouds.


Feels Like: 83 °F
Forecast: 68 / 85 °F
Wind: 10 mph from Southwest

Location: John Wayne Airport-Orange County Airport

Current Time: Jul 27, 2016 at 6:02:47 PM

Latest Report: Jul 27, 2016 at 4:53 PM


Visibility: 10 mi

Pressure: 29.87 "Hg

Humidity: 48%

Dew Point: 61 °F

Location of IrvineLocation

Past Weather in Irvine — Graph

°F

Irvine Temperature Yesterday

Maximum temperature yesterday: 86 °F (at 1:53 PM)
Minimum temperature yesterday: 70 °F (at 3:53 AM)
Average temperature yesterday: 76 °F

High & Low Weather Summary for the Past Weeks

 TemperatureHumidityPressure
High90 °F (Jul 22, 11:53 AM)93% (Jul 24, 2:53 AM)30.02 "Hg (Jul 24, 2:53 AM)
Low65 °F (Jul 17, 12:53 AM)33% (Jul 20, 3:53 PM)29.79 "Hg (Jul 23, 3:53 AM)
Average74 °F69%29.92 "Hg
* Reported Jul 12 4:53 PM — Jul 27 4:53 PM, Irvine, Weather by CustomWeather, © 2016

Note: Actual official high and low records may vary slightly from our data, if they occured in-between our weather recording intervals... More about our weather records

Advertising

Irvine Weather History for the Previous 24 Hours

Scroll right to see more
 ConditionsComfort  
Time TempWeatherWind HumidityBarometerVisibility
4:53 PM
Wed, Jul 27
83 °FPassing clouds.10 mph48%29.87 "Hg10 mi
3:53 PM82 °FPassing clouds.8 mph55%29.88 "Hg10 mi
2:53 PM82 °FPassing clouds.8 mph55%29.88 "Hg10 mi
1:53 PM85 °FPassing clouds.14 mph46%29.90 "Hg10 mi
12:53 PM85 °FScattered clouds.10 mph42%29.90 "Hg10 mi
11:53 AM85 °FScattered clouds.8 mph43%29.91 "Hg10 mi
10:53 AM82 °FScattered clouds.3 mph55%29.92 "Hg10 mi
9:53 AM80 °FPassing clouds.3 mph56%29.91 "Hg10 mi
8:53 AM76 °FPassing clouds.No wind69%29.90 "Hg10 mi
7:53 AM73 °FScattered clouds.No wind79%29.90 "Hg9 mi
6:53 AM71 °FPassing clouds.No wind84%29.89 "Hg8 mi
5:53 AM70 °FClear.3 mph87%29.88 "Hg10 mi
4:53 AM70 °FClear.No wind87%29.86 "Hg10 mi
3:53 AM70 °FClear.No wind84%29.86 "Hg10 mi
2:53 AM70 °FClear.No wind84%29.85 "Hg10 mi
1:53 AM71 °FClear.No wind84%29.86 "Hg10 mi
12:53 AM71 °FClear.6 mph84%29.87 "Hg10 mi
11:53 PM
Tue, Jul 26
71 °FClear.5 mph84%29.87 "Hg10 mi
10:53 PM72 °FClear.3 mph78%29.88 "Hg10 mi
9:53 PM72 °FClear.3 mph78%29.87 "Hg10 mi
8:53 PM73 °FPassing clouds.6 mph71%29.86 "Hg10 mi
7:53 PM75 °FPassing clouds.7 mph64%29.84 "Hg10 mi
6:53 PM77 °FPassing clouds.9 mph56%29.83 "Hg10 mi
Weather by CustomWeather, © 2016

See weather overviewHow to use our weather pages